FLOCK 3P-52 (42030 NORAD) Tracking and Keplerian Element Data

This shows tracking and keplerian element data for the satellite.

Feedback or suggestion? Click here.




ElementValue
Catalog42030
NameFLOCK 3P-52
Epoch Orbit17718
Epoch Day114.74305005
Epoch Year2020
RAAN183.2578
Inclination97.3695
Eccentricity0.0008826
Argument of Perigee137.9072
Mean Anonmoly222.2846
Mean Motion15.26257818
Decay Rate2.404E-05
L11 42030U 17008CL 20114.74305005 .00002404 00000-0 95491-4 0 9999
L22 42030 97.3695 183.2578 0008826 137.9072 222.2846 15.26257818177182



Live tracking and technical data element details for FLOCK 3P-52 (NORAD 42030). FLOCK 3P-52 can be tracked NOW for your location showing map with azimuth and elevation plus other details from your city location.







IsCatalogInMostPopularTable: catalog: 42030, numindb: 649
Update: records affected: 1



GetName: 42030 FLOCK 3P-52

Hit Count: updated at: Tue, 18 Jun 2024 00:13:11 GMT